Location: Bobo School (historical)
(34.5779°N, 89.8445°W)
Time: 05:17:22
(UTC+00:00)

Daily predictions for brighter satellites

Satellite Brightness Start Highest point End
(mag) Time Altitude Azimuth Time Altitude Azimuth Time Altitude Azimuth
Cosmos 2237 Rocket 2.2 00:53:53 10° SSW 00:59:31 73° ESE 01:05:12 10° NNE
SAR-Lupe-1 4.3 00:56:38 10° S 01:00:10 72° WSW 01:03:44 10° NNW
Cosmos 1400 Rocket 4.1 00:57:59 10° SE 01:00:19 17° E 01:02:39 10° NE
Cosmos 1980 3.7 00:55:47 10° SSW 01:01:24 83° ESE 01:07:04 10° NNE
Helios 1A Rocket 4.0 01:00:00 10° ENE 01:01:48 14° E 01:03:35 10° SE
Meteor 2-19 Rocket 4.4 00:58:40 10° N 01:04:49 77° E 01:10:54 10° S
Cosmos 44 4.3 01:01:07 10° SSE 01:05:09 26° ESE 01:09:21 10° NE
CARTOSAT-1 4.4 01:02:22 10° S 01:06:27 53° W 01:10:34 10° NNW
RESURS DK-1 2.2 01:05:08 10° SSW 01:09:02 73° ESE 01:12:58 10° NNE
Meteor 1-31 Rocket 4.2 01:08:38 10° ESE 01:11:01 17° ENE 01:13:24 10° NNE
SL-4 R/B 3.6 01:09:35 10° SSE 01:11:23 13° SE 01:13:14 10° E
Cosmos 494 Rocket 4.1 01:06:34 10° NNW 01:11:48 85° WSW 01:17:00 10° SSE
Cosmos 2112 Rocket 4.2 01:08:55 10° NNW 01:14:06 77° WSW 01:19:14 10° S
SPOT 5 3.4 01:11:26 10° SE 01:15:36 35° ENE 01:19:38 10° N
SL-8 Rocket 4.0 01:13:45 10° S 01:19:57 76° E 01:26:15 10° N
Milstar 3 4.4 01:18:38 10° S 01:23:47 19° SE 01:29:08 13° ESE
Timation 2 Rocket 4.3 01:19:44 10° NNW 01:26:03 56° ENE 01:32:32 10° SE
Cosmos 1943 Rocket 2.2 01:22:04 10° NNW 01:27:45 84° ENE 01:33:21 10° SSE
Terra 3.3 01:27:26 14° ESE 01:29:40 19° ENE 01:32:55 10° NNE
Cosmos 2341 Rocket 4.0 01:24:03 10° S 01:30:17 88° E 01:36:37 10° N
NOSS 3 (A) 4.2 01:33:32 10° SSW 01:35:09 32° SSE 01:35:09 32° SSE
Cosmos 2366 rocket 4.0 01:30:56 10° S 01:37:06 87° W 01:43:15 10° N
Meteor 2-14 Rocket 4.5 01:34:15 10° N 01:40:19 62° E 01:46:22 10° SSE
CZ-4B R/B 4.1 01:43:20 19° ESE 01:46:20 32° ENE 01:51:16 10° N
Cosmos 1733 Rocket 3.0 01:42:09 10° S 01:46:30 87° E 01:50:54 10° N
Resurs 01 Rocket 3.8 01:43:39 10° SSW 01:47:17 26° W 01:50:55 10° NW
Cosmos 2242 Rocket 3.7 01:44:41 10° N 01:49:01 53° E 01:51:49 20° SSE
Cosmos 1048 Rocket 4.1 01:45:54 10° NNW 01:51:04 78° WSW 01:56:10 11° S
Cosmos 2278 Rocket 2.3 01:45:25 10° NNW 01:51:05 77° WSW 01:56:26 11° SSE
Cosmos 1025 Rocket 4.2 01:48:34 10° NNE 01:51:57 22° ENE 01:52:18 22° E
CZ-4 R/B 1.1 01:54:18 25° SSE 01:56:19 67° ENE 02:00:00 10° N
USA 32 4.1 01:53:40 10° S 01:58:53 83° W 02:04:08 10° N
CSL-04 Debris 4.1 01:59:27 12° SSE 02:04:23 85° WSW 02:09:47 10° NNW
OAO 3 Rocket 3.0 02:01:38 10° W 02:06:18 89° N 02:08:13 36° E
Aureole 3 4.2 02:02:37 10° N 02:08:06 79° E 02:13:05 17° S
CZ-4B R/B 3.9 02:06:03 22° S 02:08:17 67° W 02:12:04 10° NNW
SL-08 R/B 3.4 02:06:47 10° NNE 02:11:38 58° E 02:14:33 23° S
Cosmos 2239 Rocket 4.4 02:06:04 10° S 02:12:10 70° E 02:18:21 10° NNE
Cosmos 1821 Rocket 4.3 02:06:41 10° SSW 02:12:52 69° W 02:19:13 10° N
Cosmos 614 Rocket 3.8 02:09:17 10° NNW 02:14:25 87° ENE 02:16:51 32° SSE
Meteor 2-8 Rocket 4.3 02:08:40 10° S 02:14:41 72° E 02:20:43 10° N
SL-16 R/B 2.1 02:09:21 10° SSW 02:15:00 84° ESE 02:20:41 10° NNE
MetOp-B 4.2 02:13:57 34° SE 02:16:10 61° ENE 02:21:27 10° N
ERS-1 Rocket 2.8 02:15:33 35° SSE 02:17:41 73° ENE 02:22:40 10° N
Cosmos 2292 Rocket 4.2 02:15:04 10° N 02:17:46 31° NE 02:17:46 31° NE
Cosmos 2298 Rocket 3.9 02:14:56 10° S 02:20:09 68° ESE 02:25:26 10° NNE
TIMED 4.3 02:19:19 10° NNW 02:23:35 86° ENE 02:24:21 59° SSE
OAO 3 Copernicus 4.2 02:20:09 10° W 02:25:11 84° S 02:26:20 54° ESE
OAO 2 Rocket 3.3 02:22:04 10° W 02:27:14 84° N 02:28:40 48° E
USA 234 3.9 02:22:58 10° NE 02:29:19 56° NW 02:35:40 10° WSW
PAYLOAD B 4.2 02:27:34 30° S 02:30:21 80° WSW 02:35:52 10° NNW
USA 59 Rocket 0.0 02:27:45 10° NNW 02:31:38 82° ENE 02:32:14 66° SE
Cosmos 2221 Rocket 4.2 02:28:01 10° N 02:31:36 41° NE 02:31:36 41° NE
YAOGAN 11 4.0 02:29:34 10° NNE 02:33:32 65° ENE 02:33:32 65° ENE
Cosmos 1000 Rocket 4.3 02:31:08 10° N 02:37:17 75° E 02:39:10 46° SSE
Cosmos 1346 Rocket 3.2 02:35:22 10° N 02:38:05 49° N 02:38:05 49° N
Meteor 2-16 Rocket 4.3 02:35:06 10° N 02:41:15 86° E 02:43:19 45° S
Spot 2 Rocket 3.5 02:42:40 57° ENE 02:42:40 57° ENE 02:47:33 10° N
Cosmos 1656 Rocket 3.5 02:37:30 10° NNW 02:43:00 81° ENE 02:43:52 64° SE
Geosat 4.3 02:39:24 10° NNE 02:44:21 65° WNW 02:49:17 10° SW
SL-4 R/B 3.0 02:44:36 10° WSW 02:47:05 37° WSW 02:47:05 37° WSW
Cosmos 2285 Rocket 4.2 02:42:15 10° SSW 02:48:36 71° WNW 02:54:57 10° NNE
Okean-O 3.2 02:53:58 50° NNE 02:53:58 50° NNE 02:57:20 10° N
BREEZE-M DEB (TANK) 4.3 02:50:59 10° NW 02:54:32 41° NW 02:54:32 41° NW
Cosmos 1674 Rocket 4.4 02:54:03 10° NNW 02:58:11 45° W 02:58:33 44° WSW
Cosmos 1908 Rocket 4.4 02:59:30 44° WSW 03:00:01 46° W 03:04:11 10° N
Okean O Rocket 2.3 03:03:31 51° NNW 03:03:31 51° NNW 03:06:46 10° NNW
Gbstr 26 Del rocket 3.7 02:58:38 10° WSW 03:04:04 61° NW 03:04:53 52° N
Terra 3.0 03:06:03 34° WSW 03:06:52 36° W 03:11:11 10° NNW
SL-08 R/B 4.4 03:02:36 10° N 03:08:51 87° W 03:09:30 73° S
Cosmos 2297 4.1 03:06:44 10° NNW 03:11:34 51° NE 03:11:34 51° NE
Cosmos 2369 Rocket 2.5 03:12:32 10° NNW 03:17:11 59° NNE 03:17:11 59° NNE
SPOT 3 Rocket 4.4 03:22:48 43° NNE 03:22:48 43° NNE 03:26:22 10° N
ASTEX 1 4.5 03:26:48 39° W 03:26:48 39° W 03:31:12 10° NNW
Cosmos 1943 3.5 03:27:21 64° NW 03:27:21 64° NW 03:32:32 10° NNE
NOSS 3-1 (C) 4.2 03:21:35 10° NNW 03:29:06 63° ENE 03:29:48 61° E
Milstar 3 4.3 03:57:40 10° WSW 04:20:09 18° E 04:24:08 10° E
NOSS 3-1 (A) 4.4 04:20:42 10° NNW 04:27:02 60° NNE 04:27:02 60° NNE
COSMOS 2455 4.4 04:27:03 10° NNW 04:30:05 31° NNW 04:30:05 31° NNW
ATLAS 2AS CENTAUR R/B 4.3 05:31:52 29° NNE 05:31:52 29° NNE 05:35:00 10° NNE
ACS3 Solar Sail 3.8 06:27:02 10° NNE 06:29:12 22° NE 06:29:12 22° NE
ATLAS 3B R/B 4.0 06:46:23 10° NNW 06:50:58 38° NNW 06:50:58 38° NNW
Cosmos 2082 Rocket 4.3 07:46:37 19° NNW 07:46:37 19° NNW 07:48:50 10° N
Cosmos 2333 Rocket 3.7 07:40:16 10° N 07:44:45 33° NE 07:44:45 33° NE
ADEOS Rocket 3.7 07:42:10 10° NNE 07:49:37 66° E 07:49:37 66° E
Resurs 1-4 Rocket 3.8 07:52:48 10° NE 07:56:27 28° ENE 07:56:27 28° ENE
USA 281 3.5 07:58:48 63° NNE 07:58:48 63° NNE 08:04:36 10° NNW
Cosmos 2322 Rocket 3.9 07:53:54 10° N 07:58:43 28° ENE 08:01:23 20° ESE
H-2A R/B 3.8 08:05:37 10° NE 08:09:53 25° E 08:09:58 25° E
SL-16 R/B 3.3 08:08:28 10° NNW 08:11:55 38° N 08:11:55 38° N
ACS3 Solar Sail 3.4 08:09:54 10° NNW 08:12:45 22° NW 08:12:45 22° NW
Cosmos 2266 Rocket 4.0 08:31:57 10° N 08:37:12 66° NNW 08:37:12 66° NNW
Iridium 4 Rocket 4.2 08:41:06 42° N 08:41:06 42° N 08:44:23 10° N
Meteor 2-4 Rocket 4.2 08:40:30 49° ESE 08:41:05 51° E 08:46:15 10° NNE
IDEFIX/ARIANE 42P 4.4 08:38:01 10° NNW 08:40:08 19° NW 08:40:08 19° NW
USA 267 3.6 08:36:15 10° NNE 08:42:30 50° NW 08:43:24 47° WNW
Envisat 3.3 08:37:45 10° NNE 08:41:55 61° N 08:41:55 61° N
Meteor 2-20 Rocket 4.3 08:45:21 81° S 08:45:41 90° E 08:51:44 10° N
ALOS 2.6 08:47:59 10° NNE 08:51:38 57° NNE 08:51:38 57° NNE
Meteor 1-27 Rocket 3.6 08:53:08 79° SW 08:53:28 84° W 08:59:25 10° N
Cosmos 1655 Rocket 4.2 08:48:31 10° N 08:54:44 68° E 08:58:04 28° SSE
Cosmos 990 Rocket 3.9 08:49:49 10° NNW 08:54:58 80° ENE 08:55:11 77° ESE
ADEOS II 2.0 08:53:53 10° NNE 08:59:07 76° ESE 08:59:43 67° SSE
Cosmos 841 Rocket 3.8 08:58:30 51° SE 08:59:17 57° ESE 09:04:21 10° NNE
ATLAS 5 CENTAUR R/B 2.8 09:05:36 58° SSW 09:06:40 80° ESE 09:20:05 10° NE
CZ-2D R/B 2.1 09:04:12 10° N 09:09:24 61° WNW 09:09:35 60° W
H-2A R/B 3.7 09:11:20 10° NE 09:14:46 28° E 09:16:49 18° SE
DELTA 2 R/B (1) 3.5 09:15:52 61° SSW 09:16:45 74° SSE 09:22:16 10° ENE
SL-16 R/B 4.1 09:11:35 10° SE 09:17:09 36° ENE 09:22:46 10° N
Cosmos 1354 Rocket 3.9 09:13:44 10° NNW 09:18:54 59° WSW 09:18:58 59° WSW
SL-4 R/B 3.2 09:19:24 12° NNW 09:22:45 38° NE 09:26:17 10° ESE
SL-14 R/B 4.2 09:23:07 29° SE 09:24:37 45° E 09:28:21 10° NNE
Cosmos 2360 Rocket 2.2 09:21:47 10° NNW 09:27:17 53° WSW 09:29:01 39° SSW
Meteor 1-18 Rocket 4.3 09:24:32 25° S 09:27:50 75° E 09:33:22 10° NNE
Cosmos 1766 Rocket 3.4 09:24:46 10° NNW 09:29:04 68° W 09:29:26 64° SW
Cosmos 2333 Rocket 3.8 09:24:45 10° NW 09:26:40 19° WNW 09:26:40 19° WNW
Meteor 2-10 Rocket 4.1 09:27:01 10° N 09:32:07 58° E 09:37:24 10° SSE
CRYOSAT 2 4.2 09:34:39 32° S 09:36:53 71° W 09:41:46 10° N
Resurs 1-4 Rocket 3.0 09:32:30 10° N 09:37:00 29° WNW 09:37:30 29° WNW
CZ-2C R/B 4.1 09:33:20 10° NE 09:37:31 30° E 09:41:36 10° SSE
CZ-3 Stage 3 3.7 09:33:58 30° WSW 09:38:24 73° S 10:05:41 10° ESE
ISS -1.9 09:41:04 20° NW 09:41:14 20° NNW 09:43:49 10° NNE
Cosmos 1553 Rocket 3.9 09:38:05 24° SSW 09:41:53 72° W 09:48:09 10° N
Cosmos 2322 Rocket 2.7 09:37:39 10° NW 09:42:41 34° WSW 09:42:59 34° WSW
SL-08 RB Rocket 4.4 09:39:46 10° NNE 09:44:06 52° E 09:48:24 10° S
H-2A R/B 2.9 09:44:31 10° N 09:49:06 33° WNW 09:50:28 29° W
JB-3 4.3 09:50:02 44° W 09:50:02 44° W 09:53:27 10° NNW
Cosmos 1461 4.3 09:51:56 19° NW 09:52:04 19° NW 09:54:48 10° N
DNEPR-1 R/B 4.4 09:49:57 10° NNW 09:55:51 79° WSW 10:03:01 10° SSE
Cosmos 2219 Rocket 2.3 09:50:55 10° NNW 09:56:20 50° WSW 10:01:45 10° S
H-2A R/B 4.5 10:01:10 10° NW 10:01:10 10° NW 10:01:16 10° NW
ARGOS 3.2 09:58:51 10° N 10:04:06 57° WNW 10:08:16 16° SSW
Cosmos 2227 Rocket 4.2 10:00:16 10° SSE 10:04:56 27° ESE 10:09:37 10° NE
SL-24 R/B 4.0 10:03:01 10° NNE 10:06:56 68° E 10:10:34 10° S
Cosmos 2084 Rocket 3.8 10:03:53 10° NW 10:07:49 38° WSW 10:11:46 10° S
EXPRESS MD2 3.4 10:08:07 24° S 10:09:09 37° SE 10:12:07 10° ENE
Cosmos 1151 Rocket 2.9 10:07:41 13° SSW 10:11:23 66° W 10:15:35 10° N
Cosmos 372 Rocket 4.3 10:08:13 10° NNW 10:13:03 42° WSW 10:17:48 10° S
Gbstr 26 Del rocket 2.6 10:10:02 10° NW 10:13:44 88° WSW 10:17:43 10° SE
Cosmos 2315 Rocket 4.3 10:09:10 10° S 10:15:28 73° E 10:21:50 10° N
Cosmos 2322 3.8 10:11:56 10° NNW 10:17:40 83° ENE 10:23:20 10° SSE
USA 276 4.3 10:17:32 10° NNE 10:18:08 11° NE 10:18:46 10° NE
Cosmos 1745 Rocket 4.0 10:12:52 10° N 10:19:03 87° E 10:25:10 10° S
Cosmos 1500 Rocket 3.6 10:18:04 10° N 10:22:29 89° ENE 10:26:55 10° S
Cosmos 1758 3.0 10:22:02 10° NNW 10:25:36 60° W 10:29:08 10° S
USA 307 2.3 10:27:45 15° SSW 10:29:28 49° SE 10:32:38 10° NE
Sich 1 3.7 10:28:17 10° NNW 10:31:58 31° W 10:35:36 10° SSW
PAYLOAD A 3.7 10:28:04 10° N 10:32:46 82° WNW 10:37:26 10° SSW
TSX-5 4.5 10:33:11 10° N 10:36:09 45° ENE 10:39:15 10° SE
Okean 3 Rocket 4.3 10:32:22 10° NNW 10:36:19 32° W 10:40:17 10° SSW
ADEOS II 4.0 10:36:15 10° NW 10:37:56 12° WNW 10:39:38 10° W
Cosmos 2297 Rocket 2.4 10:35:41 10° SW 10:41:09 52° WNW 10:46:40 10° N
Cosmos 858 Rocket 4.4 10:37:26 10° NNW 10:42:34 66° WSW 10:47:39 10° S
Cosmos 1743 Rocket 3.5 10:39:18 10° N 10:43:41 84° W 10:48:00 10° S
Cosmos 1805 Rocket 3.8 10:39:56 10° NNW 10:44:07 45° W 10:48:14 10° SSW
NOSS 0 Rocket 4.0 10:40:19 10° NNW 10:46:31 89° WSW 10:52:39 10° SSE
H-2A R/B 3.5 10:47:09 10° NNW 10:49:47 17° WNW 10:52:23 10° WSW
Cosmos 1340 Rocket 2.6 10:50:36 10° N 10:54:21 80° W 10:58:07 10° S
Cosmos 2263 Rocket 3.3 10:50:52 10° S 10:56:14 47° ESE 11:01:36 10° NNE
Cosmos 158 Rocket 4.4 10:51:38 10° SW 10:56:39 47° WNW 11:01:47 10° N
COSMOS 2428 2.9 10:51:20 10° NNW 10:56:49 50° WSW 11:02:15 10° S
USA 234 3.4 10:51:27 10° SSE 10:57:49 56° SW 11:04:13 10° NW
CZ-3 R/B 2.9 10:51:23 10° W 11:10:48 54° SSW 11:16:58 10° SE
